sat.trackr.live / text

‹ back to catalog

CHUANGXIN 1-03 (CX-1-03)

NORAD 37930 · 2011-068A

PAYLOAD ACTIVE UNKNOWN

§ Identity

Operator
Country
PRC
Launch date
2011-11-20
Launch site
JSC
Launch vehicle
Mass (kg)
RCS (m²)
0.62

External: N2YO · Heavens-Above · Gunter

§ Orbital elements

Epoch: 2026-09-04T05:02:30.156864Z

Period
100.66 min
Inclination
98.6985°
Eccentricity
0.0013832
Mean motion
14.30551894 rev/d
Perigee alt
780.0 km
Apogee alt
799.8 km
Semi-major
7,168.0 km
B*
-5.9793e-6
RAAN
264.8310°
Arg perigee
243.3242°
Mean anomaly
186.0085°
Rev number
77,195

§ Raw data

CHUANGXIN 1-03 (CX-1-03)1 37930U 11068A   26247.21007126 -.00000060  00000+0 -59793-5 0  99932 37930  98.6985 264.8310 0013832 243.3242 186.0085 14.30551894771957

JSON: /api/v1/satellites/37930 · /tle

For live sub-satellite position, see the globe view (requires WebGL).

§ Visibility from observer

Set your observer location to see the next 7 days of passes ≥ 10°. The values pass through the URL so the page stays shareable.

No JS? Fill the form by hand. The geolocation button needs JavaScript.